Location: Recife
(8.0585°S, 34.8848°W)
Time: 02:02:14
(UTC-03:00)

Vanguard 3 - Pass Details

Date: 21 April 2026
Orbit: 507 x 3205 km, 33.4° (Epoch: 15 May)

Event Time Altitude Azimuth Distance (km) Brightness Sun altitude
Rises 04:26:56 0° 323° (NW) 3,300 10.0 -14.1°
Reaches altitude 10° 04:29:03 10° 330° (NNW) 2,595 9.5 -13.6°
Maximum altitude 04:35:05 46° 43° (NE) 1,667 9.1 -12.2°
Drops below altitude 10° 04:45:31 10° 112° (ESE) 4,447 11.9 -9.6°
Sets 04:50:17 0° 117° (ESE) 5,908 12.5 -8.5°
